This demonstration page uses our WeatherBlox Daily Observations layout. Learn more.

Left ArrowRight Arrow

Hourly Observations for December 2, 2018

Temp ( °F °C ) Dew Point ( °F °C ) Humidity (%) Winds ( mph kmh ) Pressure ( in mb ) Visibility ( mi km ) Precip ( " mm )
6:30 am 06:30 Mostly Clear 46 8 41 5 82 82 S 10 17 29.50 999 10 16 N/A
6:45 am 06:45 Mostly Clear 46 8 41 5 82 82 S 10 17 29.50 999 10 16 N/A
7:45 am 07:45 Mostly Clear 46 8 39 4 76 76 SSE 10 17 29.50 999 10 16 N/A
8:45 am 08:45 Mostly Sunny 48 9 41 5 76 76 S 10 17 29.50 999 10 16 N/A
9:45 am 09:45 Mostly Sunny 52 11 41 5 67 67 S 12 19 29.50 999 10 16 N/A
10:45 am 10:45 Mostly Sunny 55 13 39 4 55 55 S 17 28 29.50 999 10 16 N/A
11:45 am 11:45 Mostly Sunny 57 14 37 3 48 48 SSW 22 35 29.47 998 10 16 N/A
12:45 pm 12:45 Partly Cloudy 59 15 37 3 45 45 SW 24 39 29.44 997 10 16 N/A
1:45 pm 13:45 Mostly Cloudy 57 14 37 3 48 48 N N/A 29.44 997 10 16 N/A
2:48 pm 14:48 Partly Cloudy 54 12 37 3 54 54 W 21 33 29.53 1000 10 16 N/A
3:48 pm 15:48 Mostly Cloudy 50 10 34 1 54 54 WSW 20 31 29.56 1001 10 16 N/A
4:26 pm 16:26 Mostly Cloudy 48 9 32 undefined 54 54 WSW 21 33 29.56 1001 10 16 N/A
4:47 pm 16:47 Cloudy 48 9 32 undefined 54 54 W 22 35 29.59 1002 10 16 N/A
5:38 pm 17:38 Mostly Cloudy 46 8 30 -1 53 53 W 17 28 29.62 1003 10 16 N/A
5:48 pm 17:48 Mostly Cloudy 46 8 30 -1 53 53 WSW 16 26 29.62 1003 10 16 N/A
6:33 pm 18:33 Mostly Cloudy 45 7 30 -1 57 57 WSW 17 28 29.65 1004 10 16 N/A
6:45 pm 18:45 Mostly Cloudy 45 7 30 -1 57 57 WSW 18 30 29.65 1004 10 16 N/A
7:46 pm 19:46 Mostly Cloudy 45 7 30 -1 57 57 WSW 17 28 29.68 1005 10 16 N/A
8:45 pm 20:45 Cloudy 45 7 28 -2 53 53 WSW 18 30 29.71 1006 10 16 N/A
9:45 pm 21:45 Cloudy 43 6 30 -1 61 61 WSW 17 28 29.71 1006 10 16 N/A

Powered by AerisWeather